Waarnemingen

Advertentie
Mijn weer
Paharova, Zweden (2184): temperatuur & dauwpunt: 10.12.2017 19:00:00 - 16.12.2017 19:00:00 (CET)Paharova, Zweden (2184): windsnelheid & windstoten: 10.12.2017 19:00:00 - 16.12.2017 19:00:00 (CET)Paharova, Zweden (2184): windrichting: 10.12.2017 19:00:00 - 16.12.2017 19:00:00 (CET)Paharova, Zweden (2184): luchtdruk: 10.12.2017 19:00:00 - 16.12.2017 19:00:00 (CET)Paharova, Zweden (2184): zicht: 10.12.2017 19:00:00 - 16.12.2017 19:00:00 (CET)Paharova, Zweden (2184): neerslag: 10.12.2017 19:00:00 - 16.12.2017 19:00:00 (CET)
Datum & Tijd tt [°C] td [°C] ff [km/u] ff [kn] fx [km/u] fx [kn] dd ppp [hPa] vv [km] rr [mm]
16.12.2017 19:00:00 -8,2 -8,5 4 2 10 5 ZZW 1002,9 42 0,0
16.12.2017 18:00:00 -7,8 -8,2 3 2 10 5 Z 1002,7 49 0,0
16.12.2017 17:00:00 -7,4 -7,8 3 2 10 5 ZZW 1002,5 50 0,0
16.12.2017 16:00:00 -7,0 -7,5 4 2 9 5 WZW 1002,3 50 0,0
16.12.2017 15:00:00 -6,8 -7,2 4 2 9 5 WZW 1001,9 39 0,0
16.12.2017 14:00:00 -6,7 -7,0 3 1 10 5 ZW 1001,5 46 0,0
16.12.2017 13:00:00 -6,5 -6,8 5 3 10 6 ZW 1001,4 43 0,0
16.12.2017 12:00:00 -6,0 -6,1 3 2 11 6 ZW 1001,3 41 0,0
16.12.2017 11:00:00 -6,0 -6,1 5 3 12 7 ZW 1001,0 46 0,0
16.12.2017 10:00:00 -5,7 -5,8 3 2 10 6 ZW 1000,8 50 0,0
16.12.2017 09:00:00 -5,7 -5,8 3 2 8 4 ZZW 1000,3 50 0,0
16.12.2017 08:00:00 -5,8 -5,8 3 2 6 3 Z 999,8 50 0,0
16.12.2017 07:00:00 -5,8 -5,9 2 1 5 3 ZZW 999,3 50 0,0
16.12.2017 06:00:00 -5,8 -5,8 3 1 5 3 Z 998,7 31 0,0
16.12.2017 05:00:00 -5,7 -5,7 4 2 6 3 ZW 998,5 45 0,0
16.12.2017 04:00:00 -5,8 -5,9 0 0 3 2 N 998,2 50 0,0
16.12.2017 03:00:00 -6,4 -6,8 2 1 3 2 ZZO 998,1 50 0,0
16.12.2017 02:00:00 -6,1 -6,4 0 0 3 1 N 997,8 50 0,0
16.12.2017 01:00:00 -5,9 -6,0 0 0 4 2 N 997,7 50 0,0
16.12.2017 00:00:00 -6,0 -6,4 2 1 5 3 ZO 997,6 30 0,0
15.12.2017 23:00:00 -5,7 -6,0 3 2 5 3 OZO 997,6 50 0,0
15.12.2017 22:00:00 -5,4 -5,5 0 0 4 2 N 997,3 40 0,0
15.12.2017 21:00:00 -5,1 -5,2 2 1 4 2 O 997,1 48 0,0
15.12.2017 20:00:00 -4,8 -4,9 0 0 5 3 N 996,9 46 0,0
15.12.2017 19:00:00 -4,7 -4,8 3 2 5 3 OZO 996,9 49 0,0
15.12.2017 18:00:00 -4,6 -4,7 4 2 9 5 OZO 996,8 42 0,0
15.12.2017 17:00:00 -4,6 -4,7 5 3 9 5 O 996,8 50 0,0
15.12.2017 16:00:00 -4,8 -4,9 6 3 10 6 O 996,7 33 0,0
15.12.2017 15:00:00 -4,7 -5,0 6 4 11 6 O 996,6 11 0,0
15.12.2017 14:00:00 -4,5 -4,8 6 3 12 6 OZO 996,6 9 0,0
15.12.2017 13:00:00 -4,2 -4,5 6 3 13 7 OZO 996,4 6 0,2
15.12.2017 12:00:00 -3,9 -4,2 8 4 14 7 ZO 996,3 3,1 0,0
15.12.2017 11:00:00 -3,7 -3,7 8 4 14 7 OZO 996,0 5 0,1
15.12.2017 10:00:00 -3,4 -3,4 7 4 15 8 ZO 996,0 4,5 0,1
15.12.2017 09:00:00 -3,4 -3,4 8 4 12 6 ZO 995,9 14 0,0
15.12.2017 08:00:00 -3,4 -3,4 8 4 13 7 ZO 995,4 21 0,0
15.12.2017 07:00:00 -3,4 -3,4 7 4 14 8 ZO 995,0 23 0,0
15.12.2017 06:00:00 -3,4 -3,4 8 4 15 8 ZO 994,5 30 0,0
15.12.2017 05:00:00 -3,3 -3,3 9 5 23 12 ZO 994,2 41 0,0
15.12.2017 04:00:00 -2,8 -2,9 10 6 21 11 ZZO 993,8 16 0,1
15.12.2017 03:00:00 -2,5 -2,5 13 7 22 12 ZZO 993,6 - 0,0
15.12.2017 02:00:00 -2,8 -2,8 10 5 24 13 ZZO 993,5 - 0,3
15.12.2017 01:00:00 -4,4 -4,4 11 6 21 11 ZZO 993,1 2,0 0,5
15.12.2017 00:00:00 -7,8 -8,2 5 3 9 5 ZZO 993,2 1,1 0,7
14.12.2017 23:00:00 -8,2 -8,9 3 2 5 3 ZZO 992,9 2,2 0,3
14.12.2017 22:00:00 -8,8 -9,5 2 1 4 2 O 992,7 2,9 0,3
14.12.2017 21:00:00 -9,7 -10,5 0 0 3 1 N 992,4 1,9 0,4
14.12.2017 20:00:00 -10,4 -11,3 0 0 3 2 N 992,1 2,7 0,2
14.12.2017 19:00:00 -11,2 -12,4 3 2 4 2 NNO 991,9 2,1 0,2
14.12.2017 18:00:00 -11,9 -13,1 2 1 3 2 NNO 991,7 3,5 0,0
14.12.2017 17:00:00 -13,5 -14,7 2 1 3 1 N 991,7 8 0,1
14.12.2017 16:00:00 -14,0 -15,1 0 0 3 2 N 991,6 50 0,0
14.12.2017 15:00:00 -15,9 -17,3 0 0 4 2 N 991,4 50 0,0
14.12.2017 14:00:00 -16,3 -18,0 0 0 6 3 N 991,2 50 0,0
14.12.2017 13:00:00 -15,8 -17,3 0 0 10 6 N 990,8 50 0,0
14.12.2017 12:00:00 -15,3 -16,7 3 2 6 4 ZZW 990,4 50 0,0
14.12.2017 11:00:00 -14,6 -15,7 3 2 8 5 Z 989,9 50 0,0
14.12.2017 10:00:00 -12,7 -14,6 3 1 11 6 Z 989,1 50 0,0
14.12.2017 09:00:00 -12,4 -13,8 5 3 11 6 Z 988,5 50 0,0
14.12.2017 08:00:00 -11,5 -13,1 7 4 12 6 Z 987,5 50 0,0
14.12.2017 07:00:00 -11,2 -12,5 5 3 11 6 Z 986,8 50 0,0
14.12.2017 06:00:00 -11,7 -13,0 7 4 13 7 Z 986,3 50 0,0
14.12.2017 05:00:00 -12,2 -13,4 7 4 13 7 Z 985,5 50 0,0
14.12.2017 04:00:00 -11,9 -13,1 6 4 11 6 Z 984,9 50 0,0
14.12.2017 03:00:00 -11,9 -13,1 6 3 10 5 Z 984,3 50 0,0
14.12.2017 02:00:00 -11,7 -12,7 5 3 9 5 Z 983,7 50 0,0
14.12.2017 01:00:00 -11,0 -12,2 5 3 8 4 Z 983,0 50 0,0
14.12.2017 00:00:00 -10,3 -11,3 4 2 8 5 Z 982,5 50 0,0
13.12.2017 23:00:00 -10,5 -11,5 4 2 9 5 ZZW 982,1 50 0,0
13.12.2017 22:00:00 -9,6 -10,4 4 2 8 4 ZZW 981,6 50 0,0
13.12.2017 21:00:00 -9,6 -10,5 4 2 9 5 ZZW 981,3 50 0,0
13.12.2017 20:00:00 -8,5 -9,2 5 3 9 5 ZZW 981,1 50 0,0
13.12.2017 19:00:00 -8,3 -8,8 4 2 8 5 ZW 981,1 32 0,0
13.12.2017 18:00:00 -7,7 -8,3 3 2 9 5 WZW 980,9 12 0,0
13.12.2017 17:00:00 -7,6 -8,0 4 2 7 4 ZW 980,7 50 0,0
13.12.2017 16:00:00 -7,2 -7,5 3 2 9 5 WZW 980,5 7 0,0
13.12.2017 15:00:00 -7,0 -7,3 4 2 13 7 W 980,3 10 0,1
13.12.2017 14:00:00 -6,9 -7,2 5 3 16 9 W 979,9 - 0,1
13.12.2017 13:00:00 -7,0 -7,3 6 3 13 7 W 979,7 - 0,0
13.12.2017 12:00:00 -6,9 -7,2 6 4 16 9 W 979,3 - 0,0
13.12.2017 11:00:00 -6,4 -6,7 9 5 17 9 WNW 979,0 3,9 0,1
13.12.2017 10:00:00 -6,4 -6,5 8 4 16 9 WNW 978,9 2,3 0,3
13.12.2017 09:00:00 -6,2 -6,3 8 4 14 8 WNW 978,6 1,5 0,4
13.12.2017 08:00:00 -6,0 -6,1 5 3 17 9 NW 978,3 3,9 0,0
13.12.2017 07:00:00 -5,9 -6,0 6 3 16 8 NW 978,6 3,9 0,1
13.12.2017 06:00:00 -5,8 -5,9 6 3 21 11 NNW 978,7 1,9 0,3
13.12.2017 05:00:00 -5,8 -5,8 7 4 26 14 NNW 979,0 2,6 0,2
13.12.2017 04:00:00 -5,6 -5,6 7 4 19 10 NNW 979,6 1,9 0,5
13.12.2017 03:00:00 -5,4 -5,4 9 5 22 12 NNW 980,5 1,6 0,4
13.12.2017 02:00:00 -5,4 -5,4 11 6 22 12 N 981,4 1,7 0,4
13.12.2017 01:00:00 -5,6 -5,6 10 5 24 13 N 982,5 1,3 0,6
13.12.2017 00:00:00 -5,8 -5,8 13 7 24 13 N 984,0 1,6 0,3
12.12.2017 23:00:00 -5,8 -5,9 16 8 27 14 N 985,6 3,2 0,2
12.12.2017 22:00:00 -6,1 -6,2 15 8 26 14 N 987,0 2,7 0,1
12.12.2017 21:00:00 -6,3 -6,4 15 8 24 13 NNO 988,7 2,7 0,1
12.12.2017 20:00:00 -6,3 -6,4 13 7 20 11 NNO 990,3 2,8 0,1
12.12.2017 19:00:00 -6,1 -6,2 12 7 19 11 N 991,8 7 0,1
12.12.2017 18:00:00 -6,1 -6,1 9 5 18 10 NNO 993,4 30 0,0
12.12.2017 17:00:00 -5,8 -5,8 7 4 15 8 NNO 994,6 10 0,0
12.12.2017 16:00:00 -5,6 -5,6 6 4 14 7 NO 995,7 10 0,0
12.12.2017 15:00:00 -5,3 -5,3 6 4 13 7 NO 996,6 7 0,0
12.12.2017 14:00:00 -5,2 -5,2 5 3 9 5 NO 997,5 6 0,0
12.12.2017 13:00:00 -5,2 -5,2 2 1 6 4 NO 998,5 3,9 0,2
12.12.2017 12:00:00 -5,0 -5,0 4 2 10 5 O 999,5 9 0,0
12.12.2017 11:00:00 -4,7 -4,7 5 3 10 5 ZO 1000,2 45 0,0
12.12.2017 10:00:00 -3,9 -3,9 4 2 11 6 OZO 1000,7 11 0,0
12.12.2017 09:00:00 -3,5 -3,5 4 2 9 5 OZO 1000,9 18 0,0
12.12.2017 08:00:00 -2,8 -2,8 6 4 10 5 ZO 1001,1 4,1 0,2
12.12.2017 07:00:00 -2,3 -2,3 5 3 10 5 ZO 1001,5 1,2 0,0
12.12.2017 06:00:00 -2,1 -2,1 6 3 11 6 ZO 1001,9 13 0,0
12.12.2017 05:00:00 -2,1 -2,1 4 2 9 5 ZO 1002,2 42 0,0
12.12.2017 04:00:00 -1,7 -1,7 5 3 10 6 ZZO 1002,3 23 0,1
12.12.2017 03:00:00 -1,7 -1,7 5 3 13 7 ZZO 1002,4 9 0,1
12.12.2017 02:00:00 -1,5 -1,5 7 4 14 8 Z 1002,5 1,2 0,1
12.12.2017 01:00:00 -1,8 -1,8 4 2 9 5 OZO 1002,6 4,3 0,1
12.12.2017 00:00:00 -1,7 -1,7 5 3 9 5 OZO 1002,9 0,8 0,1
11.12.2017 23:00:00 -1,8 -1,8 3 2 8 4 OZO 1003,2 1,0 0,0
11.12.2017 22:00:00 -1,7 -1,7 4 2 7 4 ZO 1003,1 1,6 0,0
11.12.2017 21:00:00 -1,5 -1,5 5 3 14 7 ZO 1003,2 9 0,0
11.12.2017 20:00:00 -1,5 -1,5 5 3 11 6 ZZO 1002,8 2,7 0,0
11.12.2017 19:00:00 -1,5 -1,5 6 4 11 6 ZZO 1002,6 4,3 0,0
11.12.2017 18:00:00 -1,7 -1,7 6 4 12 6 ZZO 1002,2 14 0,0
11.12.2017 17:00:00 -1,7 -1,7 6 3 14 7 Z 1001,7 19 0,0
11.12.2017 16:00:00 -1,8 -1,8 5 3 11 6 ZZO 1001,2 40 0,0
11.12.2017 15:00:00 -1,8 -1,8 5 3 11 6 ZZO 1000,7 6 0,0
11.12.2017 14:00:00 -1,8 -1,8 4 2 12 6 Z 1000,3 10 0,0
11.12.2017 13:00:00 -1,9 -1,9 4 2 10 6 ZZO 1000,0 26 0,0
11.12.2017 12:00:00 -2,0 -2,0 3 2 11 6 ZZO 999,9 7 0,1
11.12.2017 11:00:00 -1,8 -1,8 6 4 13 7 ZZO 999,6 24 0,0
11.12.2017 10:00:00 -1,8 -1,8 4 2 13 7 ZZO 999,0 21 0,0
11.12.2017 09:00:00 -2,1 -2,1 4 2 9 5 ZO 998,6 19 0,0
11.12.2017 08:00:00 -2,4 -2,4 5 3 9 5 ZO 998,2 13 0,0
11.12.2017 07:00:00 -2,7 -2,7 3 2 5 3 O 997,6 3,6 0,0
11.12.2017 06:00:00 -2,9 -2,9 4 2 9 5 OZO 997,2 3,1 0,0
11.12.2017 05:00:00 -3,3 -3,3 4 2 6 3 O 996,9 14 0,0
11.12.2017 04:00:00 -3,4 -3,4 2 1 5 3 ONO 996,6 11 0,0
11.12.2017 03:00:00 -3,2 -3,2 3 2 4 2 NO 996,6 4,1 0,1
11.12.2017 02:00:00 -3,1 -3,1 2 1 4 2 O 996,5 6 0,1
11.12.2017 01:00:00 -3,0 -3,0 0 0 6 4 N 996,6 22 0,0
11.12.2017 00:00:00 -3,1 -3,1 3 1 8 4 O 996,4 27 0,0
10.12.2017 23:00:00 -3,1 -3,1 4 2 7 4 O 996,6 35 0,0
10.12.2017 22:00:00 -2,9 -2,9 5 3 11 6 O 996,7 42 0,0
10.12.2017 21:00:00 -2,8 -2,8 3 2 10 5 O 997,0 46 0,0
10.12.2017 20:00:00 -2,7 -2,7 8 4 14 7 OZO 997,0 47 0,0
10.12.2017 19:00:00 -2,6 -2,6 8 4 13 7 OZO 996,9 50 0,0

tt = temperatuur
td = dauwpunt
ff = windsnelheid
fx = windstoten
dd = windrichting
ppp = luchtdruk
vv = zicht
rr = neerslag

Weerstations in de omgeving